TimeEDT,TemperatureF,Dew PointF,Humidity,Sea Level PressureIn,VisibilityMPH,Wind Direction,Wind SpeedMPH,Gust SpeedMPH,PrecipitationIn,Events,Conditions,WindDirDegrees,DateUTC
12:54 AM,70.0,69.1,97,29.85,6.0,Calm,Calm,-,0.00,,Overcast,0,2013-09-02 04:54:00
1:54 AM,70.0,69.1,97,29.83,6.0,Calm,Calm,-,N/A,,Overcast,0,2013-09-02 05:54:00
2:10 AM,69.8,69.8,100,29.84,4.0,Calm,Calm,-,0.01,Rain-Thunderstorm,Light Rain,0,2013-09-02 06:10:00
2:22 AM,69.8,69.8,100,29.84,6.0,Calm,Calm,-,0.01,Thunderstorm,Overcast,0,2013-09-02 06:22:00
2:26 AM,69.8,69.8,100,29.84,6.0,Calm,Calm,-,0.01,Thunderstorm,Overcast,0,2013-09-02 06:26:00
2:41 AM,69.8,69.8,100,29.82,5.0,Calm,Calm,-,0.02,Rain,Light Rain,0,2013-09-02 06:41:00
2:54 AM,70.0,69.1,97,29.83,4.0,Calm,Calm,-,0.03,Rain,Light Rain,0,2013-09-02 06:54:00
3:00 AM,69.8,69.8,100,29.83,2.5,Calm,Calm,-,0.02,Rain-Thunderstorm,Rain,0,2013-09-02 07:00:00
3:12 AM,69.8,69.8,100,29.83,4.0,SW,3.5,-,0.03,Rain-Thunderstorm,Light Rain,220,2013-09-02 07:12:00
3:26 AM,69.8,69.8,100,29.82,2.0,Calm,Calm,-,0.06,Rain-Thunderstorm,Rain,0,2013-09-02 07:26:00
3:34 AM,69.8,69.8,100,29.83,4.0,South,5.8,-,0.07,Rain-Thunderstorm,Light Rain,180,2013-09-02 07:34:00
3:37 AM,69.8,69.8,100,29.83,2.0,South,9.2,-,0.17,Rain-Thunderstorm,Light Rain,180,2013-09-02 07:37:00
3:40 AM,69.8,68.0,94,29.82,0.8,WNW,6.9,-,0.43,Rain-Thunderstorm,Heavy Thunderstorms and Rain,300,2013-09-02 07:40:00
3:52 AM,69.8,68.0,94,29.83,2.0,SSE,3.5,-,0.64,Rain-Thunderstorm,Light Thunderstorms and Rain,160,2013-09-02 07:52:00
3:54 AM,69.1,68.0,96,29.83,3.0,South,3.5,-,0.65,Rain-Thunderstorm,Light Thunderstorms and Rain,170,2013-09-02 07:54:00
4:19 AM,69.8,68.0,94,29.81,4.0,Calm,Calm,-,0.09,Rain-Thunderstorm,Heavy Rain,0,2013-09-02 08:19:00
4:33 AM,68.0,68.0,100,29.82,2.5,Calm,Calm,-,0.13,Rain-Thunderstorm,Rain,0,2013-09-02 08:33:00
4:38 AM,68.0,68.0,100,29.82,3.0,Calm,Calm,-,0.14,Rain,Rain,0,2013-09-02 08:38:00
4:45 AM,69.8,68.0,94,29.83,5.0,Variable,3.5,-,0.14,Rain,Light Rain,0,2013-09-02 08:45:00
4:54 AM,69.1,68.0,96,29.82,9.0,Calm,Calm,-,0.14,Rain-Thunderstorm,Light Rain,0,2013-09-02 08:54:00
5:07 AM,69.8,68.0,94,29.82,8.0,Calm,Calm,-,0.01,Rain,Light Rain,0,2013-09-02 09:07:00
5:14 AM,69.8,68.0,94,29.82,5.0,Calm,Calm,-,0.02,Rain,Light Rain,0,2013-09-02 09:14:00
5:46 AM,69.8,68.0,94,29.83,6.0,Calm,Calm,-,0.06,Rain,Light Rain,0,2013-09-02 09:46:00
5:54 AM,68.0,68.0,100,29.82,6.0,Calm,Calm,-,0.07,Rain,Light Rain,0,2013-09-02 09:54:00
6:54 AM,68.0,66.9,96,29.82,10.0,Calm,Calm,-,0.01,,Overcast,0,2013-09-02 10:54:00
7:01 AM,68.0,66.2,94,29.82,10.0,Calm,Calm,-,N/A,,Overcast,0,2013-09-02 11:01:00
7:34 AM,68.0,66.2,94,29.83,10.0,SSE,5.8,-,N/A,,Overcast,150,2013-09-02 11:34:00
7:54 AM,68.0,66.9,96,29.82,10.0,SE,4.6,-,N/A,,Overcast,140,2013-09-02 11:54:00
8:13 AM,68.0,66.2,94,29.83,10.0,Calm,Calm,-,N/A,,Overcast,0,2013-09-02 12:13:00
8:41 AM,68.0,66.2,94,29.83,10.0,Calm,Calm,-,N/A,,Mostly Cloudy,0,2013-09-02 12:41:00
8:54 AM,68.0,66.9,96,29.82,10.0,Calm,Calm,-,N/A,,Scattered Clouds,0,2013-09-02 12:54:00
9:30 AM,69.8,68.0,94,29.82,9.0,Calm,Calm,-,0.05,Rain,Light Rain,0,2013-09-02 13:30:00
9:54 AM,70.0,68.0,93,29.82,10.0,Calm,Calm,-,0.05,Rain,Light Rain,0,2013-09-02 13:54:00
10:34 AM,69.8,68.0,94,29.82,10.0,SE,4.6,-,0.00,,Overcast,130,2013-09-02 14:34:00
10:43 AM,69.8,68.0,94,29.81,10.0,SE,3.5,-,0.00,,Overcast,130,2013-09-02 14:43:00
10:54 AM,71.1,68.0,90,29.82,10.0,Calm,Calm,-,0.00,,Overcast,0,2013-09-02 14:54:00
11:10 AM,71.6,68.0,88,29.82,10.0,Calm,Calm,-,N/A,,Overcast,0,2013-09-02 15:10:00
11:28 AM,71.6,68.0,88,29.81,10.0,SE,4.6,-,N/A,,Overcast,130,2013-09-02 15:28:00
11:54 AM,72.0,68.0,87,29.81,10.0,SE,5.8,-,N/A,,Overcast,130,2013-09-02 15:54:00
12:07 PM,73.4,68.0,83,29.80,10.0,SE,5.8,-,N/A,,Overcast,140,2013-09-02 16:07:00
12:16 PM,73.4,69.8,88,29.80,10.0,SSE,4.6,-,N/A,,Overcast,160,2013-09-02 16:16:00
12:54 PM,73.9,69.1,85,29.79,10.0,SE,5.8,-,0.00,Rain,Light Rain,130,2013-09-02 16:54:00
1:30 PM,75.2,69.8,83,29.78,10.0,SSE,8.1,-,N/A,,Scattered Clouds,150,2013-09-02 17:30:00
1:54 PM,77.0,71.1,82,29.76,10.0,SSE,8.1,-,N/A,,Partly Cloudy,160,2013-09-02 17:54:00
2:54 PM,77.0,70.0,79,29.75,10.0,South,6.9,-,N/A,,Clear,170,2013-09-02 18:54:00
3:54 PM,77.0,70.0,79,29.74,10.0,SSE,9.2,-,N/A,,Clear,150,2013-09-02 19:54:00
4:11 PM,77.0,69.8,78,29.74,10.0,SE,5.8,-,N/A,Thunderstorm,Mostly Cloudy,130,2013-09-02 20:11:00
4:26 PM,75.2,69.8,83,29.73,10.0,SE,4.6,-,N/A,,Mostly Cloudy,130,2013-09-02 20:26:00
4:50 PM,75.2,69.8,83,29.73,10.0,SSE,4.6,-,0.00,Rain-Thunderstorm,Light Rain,160,2013-09-02 20:50:00
4:54 PM,75.9,70.0,82,29.73,10.0,South,3.5,-,0.00,Rain-Thunderstorm,Light Rain,190,2013-09-02 20:54:00
5:12 PM,73.4,71.6,94,29.72,2.5,South,3.5,-,0.03,Rain,Rain,170,2013-09-02 21:12:00
5:23 PM,73.4,71.6,94,29.73,3.0,Calm,Calm,-,0.05,Rain-Thunderstorm,Light Rain,0,2013-09-02 21:23:00
5:39 PM,73.4,71.6,94,29.72,2.5,South,3.5,-,0.08,Rain,Light Rain,180,2013-09-02 21:39:00
5:47 PM,73.4,71.6,94,29.72,3.0,Variable,3.5,-,0.09,Rain,Rain,0,2013-09-02 21:47:00
5:54 PM,73.9,71.1,91,29.71,9.0,Calm,Calm,-,0.09,Rain,Light Rain,0,2013-09-02 21:54:00
6:54 PM,72.0,71.1,97,29.71,10.0,Calm,Calm,-,0.00,,Clear,0,2013-09-02 22:54:00
7:51 PM,71.6,71.6,100,29.74,8.0,Calm,Calm,-,N/A,,Mostly Cloudy,0,2013-09-02 23:51:00
7:54 PM,71.1,71.1,100,29.73,7.0,Calm,Calm,-,N/A,,Mostly Cloudy,0,2013-09-02 23:54:00
8:31 PM,71.6,69.8,94,29.73,10.0,Calm,Calm,-,N/A,,Overcast,0,2013-09-03 00:31:00
8:54 PM,70.0,70.0,100,29.74,9.0,Calm,Calm,-,N/A,,Overcast,0,2013-09-03 00:54:00
9:54 PM,70.0,68.0,93,29.77,10.0,SW,10.4,17.3,N/A,,Overcast,220,2013-09-03 01:54:00
10:00 PM,71.6,64.4,78,29.78,10.0,WSW,11.5,23.0,0.01,Thunderstorm,Overcast,250,2013-09-03 02:00:00
10:08 PM,69.8,64.4,83,29.76,3.0,Calm,Calm,-,0.05,Rain-Thunderstorm,Heavy Rain,0,2013-09-03 02:08:00
10:35 PM,66.2,64.4,94,29.76,10.0,ENE,3.5,-,0.07,Rain,Light Rain,60,2013-09-03 02:35:00
10:54 PM,66.9,64.9,93,29.74,10.0,East,3.5,-,0.07,Rain,Light Rain,80,2013-09-03 02:54:00
11:54 PM,66.0,64.9,96,29.73,10.0,Calm,Calm,-,0.01,,Clear,0,2013-09-03 03:54:00